sat.trackr.live / text

‹ back to catalog

STARLINK-34913

NORAD 65369 · 2025-190U

PAYLOAD ACTIVE UNKNOWN

§ Identity

Operator
Country
US
Launch date
2025-08-28
Launch site
AFETR
Launch vehicle
Mass (kg)
RCS (m²)

Purposes: comms

External: N2YO · Heavens-Above · Gunter

§ Orbital elements

Epoch: 2026-05-24T18:36:33.956064Z

Period
94.11 min
Inclination
53.1580°
Eccentricity
0.0001107
Mean motion
15.30203472 rev/d
Perigee alt
474.4 km
Apogee alt
476.0 km
Semi-major
6,853.3 km
B*
5.2978e-4
RAAN
174.8112°
Arg perigee
80.7559°
Mean anomaly
279.3567°
Rev number
4,140

§ Raw data

STARLINK-349131 65369U 25190U   26144.77539301  .00015365  00000+0  52978-3 0  99912 65369  53.1580 174.8112 0001107  80.7559 279.3567 15.30203472 41405

JSON: /api/v1/satellites/65369 · /tle

For live sub-satellite position, see the globe view (requires WebGL).

§ Visibility from observer

Set your observer location to see the next 7 days of passes ≥ 10°. The values pass through the URL so the page stays shareable.

No JS? Fill the form by hand. The geolocation button needs JavaScript.